M I D A S
Marine Information and Data Acquisition System
Tripno 383 of the Zeeleeuw from 2002-07-01 08:04:20 to 2002-07-01 15:46:00
Back to CruiseResearch ActivitiesStationsMapUnderway DataData graphs

EquipmentUnitsComment
TimeDGPSUTC
LatitudeDGPSDM.mWGS84
LongitudeDGPSDM.mWGS84
TemperatureSBE03/SBE38deg celciusITS90
ConductivitySBE21S/mITS90
SalinitySBE21 Practical Salinity Units
ChlorophylAChelsea fluorimeterg/lCalibrated in Aceton
Missing or incorrect values are displayed as -999
Sea surface data collected by the RV Zeeleeuw from 2002-07-01 08:04:20 to 2002-07-01 15:46:00
                                                                                    Next 1000 lines
Time Latitude Longitude Temperature Conductivity Salinity ChlorophylA
2002-07-01 08:04:26 51°13.662 2°55.847 -999 -999 -999  
2002-07-01 08:04:31 51°13.666 2°55.838 -999 -999 -999  
2002-07-01 08:04:37 51°13.672 2°55.827 -999 -999 -999  
2002-07-01 08:04:42 51°13.677 2°55.817 -999 -999 -999  
2002-07-01 08:04:46 51°13.681 2°55.81 -999 -999 -999  
2002-07-01 08:04:51 51°13.686 2°55.8 -999 -999 -999  
2002-07-01 08:04:56 51°13.691 2°55.791 -999 -999 -999  
2002-07-01 08:05:01 51°13.696 2°55.781 -999 -999 -999  
2002-07-01 08:05:06 51°13.701 2°55.772 -999 -999 -999  
2002-07-01 08:05:11 51°13.707 2°55.763 -999 -999 -999  
2002-07-01 08:05:15 51°13.711 2°55.755 -999 -999 -999  
2002-07-01 08:05:21 51°13.718 2°55.745 -999 -999 -999  
2002-07-01 08:05:26 51°13.723 2°55.736 -999 -999 -999  
2002-07-01 08:05:31 51°13.729 2°55.728 -999 -999 -999  
2002-07-01 08:05:37 51°13.737 2°55.719 -999 -999 -999  
2002-07-01 08:05:41 51°13.742 2°55.713 -999 -999 -999  
2002-07-01 08:05:46 51°13.748 2°55.705 -999 -999 -999  
2002-07-01 08:05:51 51°13.755 2°55.698 -999 -999 -999  
2002-07-01 08:05:57 51°13.762 2°55.69 -999 -999 -999  
2002-07-01 08:06:02 51°13.769 2°55.684 -999 -999 -999  
2002-07-01 08:06:06 51°13.774 2°55.679 -999 -999 -999  
2002-07-01 08:06:11 51°13.781 2°55.673 -999 -999 -999  
2002-07-01 08:06:16 51°13.788 2°55.667 -999 -999 -999  
2002-07-01 08:06:21 51°13.796 2°55.661 -999 -999 -999  
2002-07-01 08:06:26 51°13.803 2°55.655 -999 -999 -999  
2002-07-01 08:06:31 51°13.809 2°55.65 -999 -999 -999  
2002-07-01 08:06:36 51°13.817 2°55.645 -999 -999 -999  
2002-07-01 08:06:41 51°13.824 2°55.64 -999 -999 -999  
2002-07-01 08:06:46 51°13.832 2°55.634 -999 -999 -999  
2002-07-01 08:06:51 51°13.839 2°55.629 -999 -999 -999  
2002-07-01 08:06:57 51°13.848 2°55.623 -999 -999 -999  
2002-07-01 08:07:01 51°13.854 2°55.619 -999 -999 -999  
2002-07-01 08:07:06 51°13.861 2°55.614 -999 -999 -999  
2002-07-01 08:07:11 51°13.869 2°55.608 -999 -999 -999  
2002-07-01 08:07:16 51°13.876 2°55.603 -999 -999 -999  
2002-07-01 08:07:21 51°13.883 2°55.597 -999 -999 -999  
2002-07-01 08:07:26 51°13.891 2°55.592 -999 -999 -999  
2002-07-01 08:07:31 51°13.898 2°55.586 -999 -999 -999  
2002-07-01 08:07:36 51°13.905 2°55.58 -999 -999 -999  
2002-07-01 08:07:41 51°13.913 2°55.575 -999 -999 -999  
2002-07-01 08:07:46 51°13.92 2°55.569 -999 -999 -999  
2002-07-01 08:07:51 51°13.928 2°55.563 -999 -999 -999  
2002-07-01 08:07:56 51°13.935 2°55.558 -999 -999 -999  
2002-07-01 08:08:01 51°13.943 2°55.552 -999 -999 -999  
2002-07-01 08:08:07 51°13.953 2°55.545 -999 -999 -999  
2002-07-01 08:08:11 51°13.959 2°55.541 -999 -999 -999  
2002-07-01 08:08:17 51°13.969 2°55.533 -999 -999 -999  
2002-07-01 08:08:21 51°13.975 2°55.529 -999 -999 -999  
2002-07-01 08:08:26 51°13.983 2°55.523 -999 -999 -999  
2002-07-01 08:08:31 51°13.992 2°55.516 -999 -999 -999  
2002-07-01 08:08:36 51°14 2°55.51 -999 -999 -999  
2002-07-01 08:08:42 51°14.01 2°55.503 -999 -999 -999  
2002-07-01 08:08:46 51°14.017 2°55.498 -999 -999 -999  
2002-07-01 08:08:51 51°14.025 2°55.491 -999 -999 -999  
2002-07-01 08:08:56 51°14.034 2°55.485 -999 -999 -999  
2002-07-01 08:09:01 51°14.042 2°55.479 -999 -999 -999  
2002-07-01 08:09:06 51°14.051 2°55.472 -999 -999 -999  
2002-07-01 08:09:11 51°14.059 2°55.466 -999 -999 -999  
2002-07-01 08:09:16 51°14.068 2°55.459 -999 -999 -999  
2002-07-01 08:09:22 51°14.078 2°55.452 -999 -999 -999  
2002-07-01 08:09:26 51°14.085 2°55.446 -999 -999 -999  
2002-07-01 08:09:31 51°14.094 2°55.439 -999 -999 -999  
2002-07-01 08:09:36 51°14.102 2°55.432 -999 -999 -999  
2002-07-01 08:09:41 51°14.111 2°55.425 -999 -999 -999  
2002-07-01 08:09:46 51°14.119 2°55.418 -999 -999 -999  
2002-07-01 08:09:51 51°14.128 2°55.41 -999 -999 -999  
2002-07-01 08:09:56 51°14.136 2°55.403 -999 -999 -999  
2002-07-01 08:10:02 51°14.146 2°55.394 -999 -999 -999  
2002-07-01 08:10:06 51°14.153 2°55.387 -999 -999 -999  
2002-07-01 08:10:11 51°14.161 2°55.379 -999 -999 -999  
2002-07-01 08:10:17 51°14.171 2°55.369 -999 -999 -999  
2002-07-01 08:10:21 51°14.178 2°55.363 -999 -999 -999  
2002-07-01 08:10:26 51°14.186 2°55.354 -999 -999 -999  
2002-07-01 08:10:32 51°14.196 2°55.344 -999 -999 -999  
2002-07-01 08:10:38 51°14.205 2°55.332 -999 -999 -999  
2002-07-01 08:10:42 51°14.212 2°55.325 -999 -999 -999  
2002-07-01 08:10:46 51°14.218 2°55.317 -999 -999 -999  
2002-07-01 08:10:52 51°14.228 2°55.306 -999 -999 -999  
2002-07-01 08:10:56 51°14.234 2°55.297 -999 -999 -999  
2002-07-01 08:11:03 51°14.244 2°55.283 -999 -999 -999  
2002-07-01 08:11:06 51°14.249 2°55.276 -999 -999 -999  
2002-07-01 08:11:12 51°14.257 2°55.264 -999 -999 -999  
2002-07-01 08:11:17 51°14.264 2°55.254 -999 -999 -999  
2002-07-01 08:11:21 51°14.27 2°55.245 -999 -999 -999  
2002-07-01 08:11:26 51°14.277 2°55.234 -999 -999 -999  
2002-07-01 08:11:31 51°14.283 2°55.223 -999 -999 -999  
2002-07-01 08:11:36 51°14.29 2°55.212 -999 -999 -999  
2002-07-01 08:11:41 51°14.296 2°55.2 -999 -999 -999  
2002-07-01 08:11:46 51°14.303 2°55.189 -999 -999 -999  
2002-07-01 08:11:51 51°14.309 2°55.177 -999 -999 -999  
2002-07-01 08:11:55 51°14.314 2°55.167 -999 -999 -999  
2002-07-01 08:12:02 51°14.323 2°55.151 -999 -999 -999  
2002-07-01 08:12:06 51°14.328 2°55.142 -999 -999 -999  
2002-07-01 08:12:11 51°14.335 2°55.13 -999 -999 -999  
2002-07-01 08:12:16 51°14.341 2°55.118 -999 -999 -999  
2002-07-01 08:12:21 51°14.347 2°55.106 -999 -999 -999  
2002-07-01 08:12:26 51°14.353 2°55.094 -999 -999 -999  
2002-07-01 08:12:31 51°14.359 2°55.082 -999 -999 -999  
2002-07-01 08:12:36 51°14.365 2°55.07 -999 -999 -999  
2002-07-01 08:12:42 51°14.373 2°55.056 -999 -999 -999  
2002-07-01 08:12:46 51°14.378 2°55.047 -999 -999 -999  
2002-07-01 08:12:51 51°14.384 2°55.035 -999 -999 -999  
2002-07-01 08:12:56 51°14.39 2°55.022 -999 -999 -999  
2002-07-01 08:13:02 51°14.397 2°55.008 -999 -999 -999  
2002-07-01 08:13:06 51°14.401 2°54.998 -999 -999 -999  
2002-07-01 08:13:11 51°14.407 2°54.986 -999 -999 -999  
2002-07-01 08:13:16 51°14.412 2°54.973 -999 -999 -999  
2002-07-01 08:13:21 51°14.418 2°54.96 -999 -999 -999  
2002-07-01 08:13:26 51°14.424 2°54.946 -999 -999 -999  
2002-07-01 08:13:31 51°14.43 2°54.931 -999 -999 -999  
2002-07-01 08:13:37 51°14.438 2°54.912 -999 -999 -999  
2002-07-01 08:13:41 51°14.443 2°54.899 -999 -999 -999  
2002-07-01 08:13:46 51°14.45 2°54.882 -999 -999 -999  
2002-07-01 08:13:51 51°14.457 2°54.864 -999 -999 -999  
2002-07-01 08:13:56 51°14.463 2°54.846 -999 -999 -999  
2002-07-01 08:14:02 51°14.472 2°54.825 -999 -999 -999  
2002-07-01 08:14:06 51°14.478 2°54.81 -999 -999 -999  
2002-07-01 08:14:11 51°14.485 2°54.792 -999 -999 -999  
2002-07-01 08:14:16 51°14.492 2°54.773 -999 -999 -999  
2002-07-01 08:14:21 51°14.5 2°54.755 -999 -999 -999  
2002-07-01 08:14:26 51°14.509 2°54.737 -999 -999 -999  
2002-07-01 08:14:32 51°14.52 2°54.715 -999 -999 -999  
2002-07-01 08:14:36 51°14.529 2°54.7 -999 -999 -999  
2002-07-01 08:14:41 51°14.539 2°54.681 -999 -999 -999  
2002-07-01 08:14:46 51°14.55 2°54.662 -999 -999 -999  
2002-07-01 08:14:51 51°14.561 2°54.642 -999 -999 -999  
2002-07-01 08:14:56 51°14.572 2°54.622 -999 -999 -999  
2002-07-01 08:15:01 51°14.583 2°54.601 -999 -999 -999  
2002-07-01 08:15:07 51°14.595 2°54.576 -999 -999 -999  
2002-07-01 08:15:11 51°14.604 2°54.559 -999 -999 -999  
2002-07-01 08:15:16 51°14.615 2°54.537 -999 -999 -999  
2002-07-01 08:15:21 51°14.627 2°54.517 -999 -999 -999  
2002-07-01 08:15:26 51°14.639 2°54.496 -999 -999 -999  
2002-07-01 08:15:31 51°14.65 2°54.475 -999 -999 -999  
2002-07-01 08:15:37 51°14.663 2°54.449 -999 -999 -999  
2002-07-01 08:15:41 51°14.672 2°54.431 -999 -999 -999  
2002-07-01 08:15:46 51°14.682 2°54.408 -999 -999 -999  
2002-07-01 08:15:51 51°14.693 2°54.386 -999 -999 -999  
2002-07-01 08:15:56 51°14.702 2°54.362 -999 -999 -999  
2002-07-01 08:16:01 51°14.712 2°54.339 -999 -999 -999  
2002-07-01 08:16:06 51°14.721 2°54.315 -999 -999 -999  
2002-07-01 08:16:11 51°14.73 2°54.291 -999 -999 -999  
2002-07-01 08:16:16 51°14.739 2°54.266 -999 -999 -999  
2002-07-01 08:16:21 51°14.747 2°54.242 -999 -999 -999  
2002-07-01 08:16:26 51°14.755 2°54.217 -999 -999 -999  
2002-07-01 08:16:31 51°14.763 2°54.191 -999 -999 -999  
2002-07-01 08:16:36 51°14.77 2°54.166 -999 -999 -999  
2002-07-01 08:16:41 51°14.777 2°54.14 -999 -999 -999  
2002-07-01 08:16:46 51°14.784 2°54.115 -999 -999 -999  
2002-07-01 08:16:51 51°14.791 2°54.089 -999 -999 -999  
2002-07-01 08:16:57 51°14.799 2°54.058 -999 -999 -999  
2002-07-01 08:17:01 51°14.804 2°54.037 -999 -999 -999  
2002-07-01 08:17:06 51°14.81 2°54.012 -999 -999 -999  
2002-07-01 08:17:11 51°14.817 2°53.986 -999 -999 -999  
2002-07-01 08:17:16 51°14.823 2°53.96 -999 -999 -999  
2002-07-01 08:17:21 51°14.829 2°53.935 -999 -999 -999  
2002-07-01 08:17:26 51°14.836 2°53.91 -999 -999 -999  
2002-07-01 08:17:31 51°14.843 2°53.884 -999 -999 -999  
2002-07-01 08:17:36 51°14.849 2°53.859 -999 -999 -999  
2002-07-01 08:17:41 51°14.856 2°53.833 -999 -999 -999  
2002-07-01 08:17:46 51°14.862 2°53.807 -999 -999 -999  
2002-07-01 08:17:51 51°14.868 2°53.782 -999 -999 -999  
2002-07-01 08:17:56 51°14.875 2°53.756 -999 -999 -999  
2002-07-01 08:18:02 51°14.883 2°53.726 -999 -999 -999  
2002-07-01 08:18:06 51°14.888 2°53.705 -999 -999 -999  
2002-07-01 08:18:11 51°14.895 2°53.68 -999 -999 -999  
2002-07-01 08:18:16 51°14.901 2°53.654 -999 -999 -999  
2002-07-01 08:18:22 51°14.909 2°53.623 -999 -999 -999  
2002-07-01 08:18:26 51°14.914 2°53.602 -999 -999 -999  
2002-07-01 08:18:31 51°14.92 2°53.576 -999 -999 -999  
2002-07-01 08:18:37 51°14.928 2°53.545 -999 -999 -999  
2002-07-01 08:18:41 51°14.934 2°53.524 -999 -999 -999  
2002-07-01 08:18:46 51°14.941 2°53.498 -999 -999 -999  
2002-07-01 08:18:51 51°14.947 2°53.472 -999 -999 -999  
2002-07-01 08:18:56 51°14.955 2°53.445 -999 -999 -999  
2002-07-01 08:19:02 51°14.963 2°53.414 -999 -999 -999  
2002-07-01 08:19:06 51°14.968 2°53.392 -999 -999 -999  
2002-07-01 08:19:11 51°14.976 2°53.365 -999 -999 -999  
2002-07-01 08:19:16 51°14.983 2°53.339 -999 -999 -999  
2002-07-01 08:19:21 51°14.99 2°53.312 -999 -999 -999  
2002-07-01 08:19:26 51°14.997 2°53.285 -999 -999 -999  
2002-07-01 08:19:31 51°15.004 2°53.258 -999 -999 -999  
2002-07-01 08:19:36 51°15.011 2°53.231 -999 -999 -999  
2002-07-01 08:19:41 51°15.018 2°53.205 -999 -999 -999  
2002-07-01 08:19:47 51°15.026 2°53.172 -999 -999 -999  
2002-07-01 08:19:51 51°15.032 2°53.151 -999 -999 -999  
2002-07-01 08:19:54 51°15.036 2°53.135 -999 -999 -999  
2002-07-01 08:20:01 51°15.046 2°53.097 -999 -999 -999  
2002-07-01 08:20:06 51°15.053 2°53.07 -999 -999 -999  
2002-07-01 08:20:11 51°15.06 2°53.043 -999 -999 -999  
2002-07-01 08:20:16 51°15.068 2°53.016 -999 -999 -999  
2002-07-01 08:20:21 51°15.074 2°52.989 -999 -999 -999  
2002-07-01 08:20:26 51°15.082 2°52.962 -999 -999 -999  
2002-07-01 08:20:31 51°15.089 2°52.935 -999 -999 -999  
2002-07-01 08:20:36 51°15.096 2°52.908 -999 -999 -999  
2002-07-01 08:20:41 51°15.103 2°52.882 -999 -999 -999  
2002-07-01 08:20:46 51°15.11 2°52.855 -999 -999 -999  
2002-07-01 08:20:51 51°15.118 2°52.828 -999 -999 -999  
2002-07-01 08:20:56 51°15.125 2°52.801 -999 -999 -999  
2002-07-01 08:21:01 51°15.132 2°52.774 -999 -999 -999  
2002-07-01 08:21:06 51°15.139 2°52.746 -999 -999 -999  
2002-07-01 08:21:11 51°15.146 2°52.72 -999 -999 -999  
2002-07-01 08:21:16 51°15.154 2°52.693 -999 -999 -999  
2002-07-01 08:21:21 51°15.161 2°52.667 -999 -999 -999  
2002-07-01 08:21:26 51°15.168 2°52.64 -999 -999 -999  
2002-07-01 08:21:32 51°15.177 2°52.608 -999 -999 -999  
2002-07-01 08:21:36 51°15.183 2°52.586 -999 -999 -999  
2002-07-01 08:21:41 51°15.19 2°52.559 -999 -999 -999  
2002-07-01 08:21:46 51°15.198 2°52.532 -999 -999 -999  
2002-07-01 08:21:51 51°15.205 2°52.505 -999 -999 -999  
2002-07-01 08:21:56 51°15.213 2°52.478 -999 -999 -999  
2002-07-01 08:22:01 51°15.22 2°52.45 -999 -999 -999  
2002-07-01 08:22:06 51°15.226 2°52.424 -999 -999 -999  
2002-07-01 08:22:11 51°15.233 2°52.397 -999 -999 -999  
2002-07-01 08:22:16 51°15.24 2°52.37 -999 -999 -999  
2002-07-01 08:22:21 51°15.247 2°52.342 -999 -999 -999  
2002-07-01 08:22:26 51°15.254 2°52.315 -999 -999 -999  
2002-07-01 08:22:31 51°15.261 2°52.288 -999 -999 -999  
2002-07-01 08:22:36 51°15.267 2°52.261 -999 -999 -999  
2002-07-01 08:22:42 51°15.275 2°52.229 -999 -999 -999  
2002-07-01 08:22:47 51°15.282 2°52.202 -999 -999 -999  
2002-07-01 08:22:51 51°15.287 2°52.18 -999 -999 -999  
2002-07-01 08:22:56 51°15.294 2°52.152 -999 -999 -999  
2002-07-01 08:23:01 51°15.3 2°52.125 -999 -999 -999  
2002-07-01 08:23:06 51°15.307 2°52.097 -999 -999 -999  
2002-07-01 08:23:11 51°15.313 2°52.07 -999 -999 -999  
2002-07-01 08:23:16 51°15.32 2°52.043 -999 -999 -999  
2002-07-01 08:23:21 51°15.327 2°52.015 -999 -999 -999  
2002-07-01 08:23:26 51°15.333 2°51.988 -999 -999 -999  
2002-07-01 08:23:31 51°15.339 2°51.961 -999 -999 -999  
2002-07-01 08:23:36 51°15.345 2°51.933 -999 -999 -999  
2002-07-01 08:23:42 51°15.351 2°51.899 -999 -999 -999  
2002-07-01 08:23:46 51°15.354 2°51.876 -999 -999 -999  
2002-07-01 08:23:51 51°15.358 2°51.849 -999 -999 -999  
2002-07-01 08:23:56 51°15.359 2°51.82 -999 -999 -999  
2002-07-01 08:24:01 51°15.36 2°51.791 -999 -999 -999  
2002-07-01 08:24:06 51°15.359 2°51.764 -999 -999 -999  
2002-07-01 08:24:11 51°15.357 2°51.735 -999 -999 -999  
2002-07-01 08:24:16 51°15.354 2°51.707 -999 -999 -999  
2002-07-01 08:24:21 51°15.35 2°51.679 -999 -999 -999  
2002-07-01 08:24:26 51°15.347 2°51.651 -999 -999 -999  
2002-07-01 08:24:31 51°15.343 2°51.624 -999 -999 -999  
2002-07-01 08:24:37 51°15.338 2°51.591 -999 -999 -999  
2002-07-01 08:24:41 51°15.334 2°51.569 -999 -999 -999  
2002-07-01 08:24:46 51°15.33 2°51.541 -999 -999 -999  
2002-07-01 08:24:51 51°15.326 2°51.513 -999 -999 -999  
2002-07-01 08:24:57 51°15.321 2°51.48 -999 -999 -999  
2002-07-01 08:25:01 51°15.318 2°51.458 -999 -999 -999  
2002-07-01 08:25:06 51°15.314 2°51.43 -999 -999 -999  
2002-07-01 08:25:11 51°15.311 2°51.402 -999 -999 -999  
2002-07-01 08:25:16 51°15.308 2°51.375 -999 -999 -999  
2002-07-01 08:25:21 51°15.304 2°51.347 -999 -999 -999  
2002-07-01 08:25:26 51°15.302 2°51.319 -999 -999 -999  
2002-07-01 08:25:31 51°15.299 2°51.291 -999 -999 -999  
2002-07-01 08:25:36 51°15.297 2°51.262 -999 -999 -999  
2002-07-01 08:25:42 51°15.294 2°51.228 -999 -999 -999  
2002-07-01 08:25:46 51°15.293 2°51.205 -999 -999 -999  
2002-07-01 08:25:51 51°15.291 2°51.176 -999 -999 -999  
2002-07-01 08:25:57 51°15.288 2°51.142 -999 -999 -999  
2002-07-01 08:26:01 51°15.287 2°51.119 -999 -999 -999  
2002-07-01 08:26:06 51°15.285 2°51.09 -999 -999 -999  
2002-07-01 08:26:11 51°15.282 2°51.062 -999 -999 -999  
2002-07-01 08:26:17 51°15.28 2°51.027 -999 -999 -999  
2002-07-01 08:26:21 51°15.278 2°51.005 -999 -999 -999  
2002-07-01 08:26:26 51°15.276 2°50.976 -999 -999 -999  
2002-07-01 08:26:32 51°15.275 2°50.942 -999 -999 -999  
2002-07-01 08:26:36 51°15.273 2°50.919 -999 -999 -999  
2002-07-01 08:26:42 51°15.271 2°50.885 -999 -999 -999  
2002-07-01 08:26:47 51°15.269 2°50.857 -999 -999 -999  
2002-07-01 08:26:51 51°15.267 2°50.834 -999 -999 -999  
2002-07-01 08:26:56 51°15.265 2°50.806 -999 -999 -999  
2002-07-01 08:27:02 51°15.262 2°50.772 -999 -999 -999  
2002-07-01 08:27:06 51°15.26 2°50.75 -999 -999 -999  
2002-07-01 08:27:12 51°15.256 2°50.717 -999 -999 -999  
2002-07-01 08:27:16 51°15.253 2°50.694 -999 -999 -999  
2002-07-01 08:27:21 51°15.25 2°50.666 -999 -999 -999  
2002-07-01 08:27:27 51°15.247 2°50.633 -999 -999 -999  
2002-07-01 08:27:31 51°15.244 2°50.61 -999 -999 -999  
2002-07-01 08:27:37 51°15.24 2°50.576 -999 -999 -999  
2002-07-01 08:27:42 51°15.237 2°50.547 -999 -999 -999  
2002-07-01 08:27:47 51°15.234 2°50.52 -999 -999 -999  
2002-07-01 08:27:51 51°15.231 2°50.498 -999 -999 -999  
2002-07-01 08:27:56 51°15.228 2°50.471 -999 -999 -999  
2002-07-01 08:28:01 51°15.225 2°50.444 -999 -999 -999  
2002-07-01 08:28:06 51°15.222 2°50.416 -999 -999 -999  
2002-07-01 08:28:11 51°15.219 2°50.388 -999 -999 -999  
2002-07-01 08:28:16 51°15.216 2°50.36 -999 -999 -999  
2002-07-01 08:28:22 51°15.213 2°50.327 -999 -999 -999  
2002-07-01 08:28:26 51°15.21 2°50.305 -999 -999 -999  
2002-07-01 08:28:31 51°15.207 2°50.277 -999 -999 -999  
2002-07-01 08:28:38 51°15.202 2°50.239 -999 -999 -999  
2002-07-01 08:28:41 51°15.2 2°50.223 -999 -999 -999  
2002-07-01 08:28:46 51°15.197 2°50.195 -999 -999 -999  
2002-07-01 08:28:51 51°15.194 2°50.168 -999 -999 -999  
2002-07-01 08:28:57 51°15.19 2°50.134 -999 -999 -999  
2002-07-01 08:29:01 51°15.187 2°50.112 -999 -999 -999  
2002-07-01 08:29:07 51°15.183 2°50.079 -999 -999 -999  
2002-07-01 08:29:11 51°15.18 2°50.056 -999 -999 -999  
2002-07-01 08:29:16 51°15.177 2°50.028 -999 -999 -999  
2002-07-01 08:29:21 51°15.173 2°50 -999 -999 -999  
2002-07-01 08:29:26 51°15.169 2°49.972 -999 -999 -999  
2002-07-01 08:29:31 51°15.166 2°49.944 -999 -999 -999  
2002-07-01 08:29:36 51°15.162 2°49.916 -999 -999 -999  
2002-07-01 08:29:41 51°15.159 2°49.888 -999 -999 -999  
2002-07-01 08:29:47 51°15.155 2°49.854 -999 -999 -999  
2002-07-01 08:29:51 51°15.151 2°49.832 -999 -999 -999  
2002-07-01 08:29:56 51°15.148 2°49.804 -999 -999 -999  
2002-07-01 08:30:01 51°15.144 2°49.776 -999 -999 -999  
2002-07-01 08:30:06 51°15.141 2°49.748 -999 -999 -999  
2002-07-01 08:30:11 51°15.137 2°49.72 -999 -999 -999  
2002-07-01 08:30:16 51°15.134 2°49.692 -999 -999 -999  
2002-07-01 08:30:21 51°15.13 2°49.664 -999 -999 -999  
2002-07-01 08:30:26 51°15.127 2°49.636 -999 -999 -999  
2002-07-01 08:30:31 51°15.123 2°49.607 -999 -999 -999  
2002-07-01 08:30:36 51°15.12 2°49.579 -999 -999 -999  
2002-07-01 08:30:41 51°15.116 2°49.551 -999 -999 -999  
2002-07-01 08:30:46 51°15.113 2°49.523 -999 -999 -999  
2002-07-01 08:30:52 51°15.108 2°49.489 -999 -999 -999  
2002-07-01 08:30:56 51°15.105 2°49.467 -999 -999 -999  
2002-07-01 08:31:01 51°15.102 2°49.438 -999 -999 -999  
2002-07-01 08:31:06 51°15.098 2°49.41 -999 -999 -999  
2002-07-01 08:31:11 51°15.095 2°49.382 -999 -999 -999  
2002-07-01 08:31:16 51°15.091 2°49.354 -999 -999 -999  
2002-07-01 08:31:22 51°15.087 2°49.32 -999 -999 -999  
2002-07-01 08:31:26 51°15.084 2°49.297 -999 -999 -999  
2002-07-01 08:31:31 51°15.08 2°49.269 -999 -999 -999  
2002-07-01 08:31:36 51°15.077 2°49.24 -999 -999 -999  
2002-07-01 08:31:41 51°15.073 2°49.212 -999 -999 -999  
2002-07-01 08:31:46 51°15.069 2°49.184 -999 -999 -999  
2002-07-01 08:31:52 51°15.065 2°49.151 -999 -999 -999  
2002-07-01 08:31:56 51°15.062 2°49.128 -999 -999 -999  
2002-07-01 08:32:02 51°15.058 2°49.094 -999 -999 -999  
2002-07-01 08:32:06 51°15.055 2°49.072 -999 -999 -999  
2002-07-01 08:32:11 51°15.052 2°49.044 -999 -999 -999  
2002-07-01 08:32:17 51°15.048 2°49.01 -999 -999 -999  
2002-07-01 08:32:21 51°15.045 2°48.987 -999 -999 -999  
2002-07-01 08:32:26 51°15.042 2°48.959 -999 -999 -999  
2002-07-01 08:32:31 51°15.038 2°48.931 -999 -999 -999  
2002-07-01 08:32:37 51°15.034 2°48.897 -999 -999 -999  
2002-07-01 08:32:41 51°15.031 2°48.874 -999 -999 -999  
2002-07-01 08:32:46 51°15.028 2°48.846 -999 -999 -999  
2002-07-01 08:32:52 51°15.023 2°48.813 -999 -999 -999  
2002-07-01 08:32:56 51°15.021 2°48.79 -999 -999 -999  
2002-07-01 08:33:02 51°15.017 2°48.756 -999 -999 -999  
2002-07-01 08:33:06 51°15.014 2°48.733 -999 -999 -999  
2002-07-01 08:33:12 51°15.01 2°48.7 -999 -999 -999  
2002-07-01 08:33:16 51°15.007 2°48.678 -999 -999 -999  
2002-07-01 08:33:21 51°15.003 2°48.65 -999 -999 -999  
2002-07-01 08:33:26 51°15 2°48.621 -999 -999 -999  
2002-07-01 08:33:31 51°14.997 2°48.593 -999 -999 -999  
2002-07-01 08:33:37 51°14.992 2°48.559 -999 -999 -999  
2002-07-01 08:33:42 51°14.989 2°48.532 -999 -999 -999  
2002-07-01 08:33:46 51°14.986 2°48.51 -999 -999 -999  
2002-07-01 08:33:51 51°14.982 2°48.482 -999 -999 -999  
2002-07-01 08:33:56 51°14.979 2°48.454 -999 -999 -999  
2002-07-01 08:34:02 51°14.975 2°48.42 -999 -999 -999  
2002-07-01 08:34:06 51°14.972 2°48.398 -999 -999 -999  
2002-07-01 08:34:11 51°14.969 2°48.369 -999 -999 -999  
2002-07-01 08:34:17 51°14.965 2°48.336 -999 -999 -999  
2002-07-01 08:34:21 51°14.962 2°48.314 -999 -999 -999  
2002-07-01 08:34:26 51°14.958 2°48.286 -999 -999 -999  
2002-07-01 08:34:32 51°14.954 2°48.253 -999 -999 -999  
2002-07-01 08:34:36 51°14.951 2°48.23 -999 -999 -999  
2002-07-01 08:34:42 51°14.947 2°48.196 -999 -999 -999  
2002-07-01 08:34:46 51°14.945 2°48.174 -999 -999 -999  
2002-07-01 08:34:51 51°14.942 2°48.145 -999 -999 -999  
2002-07-01 08:34:57 51°14.94 2°48.111 -999 -999 -999  
2002-07-01 08:35:01 51°14.938 2°48.088 -999 -999 -999  
2002-07-01 08:35:06 51°14.936 2°48.06 -999 -999 -999  
2002-07-01 08:35:11 51°14.935 2°48.031 -999 -999 -999  
2002-07-01 08:35:16 51°14.933 2°48.003 -999 -999 -999  
2002-07-01 08:35:21 51°14.931 2°47.974 -999 -999 -999  
2002-07-01 08:35:26 51°14.93 2°47.945 -999 -999 -999  
2002-07-01 08:35:31 51°14.928 2°47.917 -999 -999 -999  
2002-07-01 08:35:36 51°14.926 2°47.888 -999 -999 -999  
2002-07-01 08:35:41 51°14.924 2°47.86 -999 -999 -999  
2002-07-01 08:35:46 51°14.922 2°47.831 -999 -999 -999  
2002-07-01 08:35:51 51°14.92 2°47.803 -999 -999 -999  
2002-07-01 08:35:58 51°14.917 2°47.763 -999 -999 -999  
2002-07-01 08:36:02 51°14.915 2°47.741 -999 -999 -999  
2002-07-01 08:36:06 51°14.914 2°47.718 -999 -999 -999  
2002-07-01 08:36:11 51°14.912 2°47.689 -999 -999 -999  
2002-07-01 08:36:16 51°14.91 2°47.661 -999 -999 -999  
2002-07-01 08:36:21 51°14.907 2°47.632 -999 -999 -999  
2002-07-01 08:36:27 51°14.905 2°47.598 -999 -999 -999  
2002-07-01 08:36:31 51°14.903 2°47.575 -999 -999 -999  
2002-07-01 08:36:37 51°14.9 2°47.541 -999 -999 -999  
2002-07-01 08:36:41 51°14.899 2°47.518 -999 -999 -999  
2002-07-01 08:36:46 51°14.896 2°47.489 -999 -999 -999  
2002-07-01 08:36:51 51°14.894 2°47.461 -999 -999 -999  
2002-07-01 08:36:56 51°14.892 2°47.432 -999 -999 -999  
2002-07-01 08:37:01 51°14.889 2°47.405 -999 -999 -999  
2002-07-01 08:37:06 51°14.887 2°47.376 -999 -999 -999  
2002-07-01 08:37:11 51°14.885 2°47.348 -999 -999 -999  
2002-07-01 08:37:16 51°14.882 2°47.32 -999 -999 -999  
2002-07-01 08:37:21 51°14.88 2°47.292 -999 -999 -999  
2002-07-01 08:37:26 51°14.877 2°47.264 -999 -999 -999  
2002-07-01 08:37:31 51°14.875 2°47.236 -999 -999 -999  
2002-07-01 08:37:36 51°14.873 2°47.207 -999 -999 -999  
2002-07-01 08:37:41 51°14.87 2°47.179 -999 -999 -999  
2002-07-01 08:37:47 51°14.868 2°47.145 -999 -999 -999  
2002-07-01 08:37:51 51°14.866 2°47.122 -999 -999 -999  
2002-07-01 08:37:57 51°14.864 2°47.088 -999 -999 -999  
2002-07-01 08:38:02 51°14.861 2°47.059 -999 -999 -999  
2002-07-01 08:38:06 51°14.86 2°47.037 -999 -999 -999  
2002-07-01 08:38:11 51°14.857 2°47.008 -999 -999 -999  
2002-07-01 08:38:16 51°14.855 2°46.98 -999 -999 -999  
2002-07-01 08:38:21 51°14.852 2°46.951 -999 -999 -999  
2002-07-01 08:38:26 51°14.85 2°46.923 -999 -999 -999  
2002-07-01 08:38:31 51°14.847 2°46.895 -999 -999 -999  
2002-07-01 08:38:37 51°14.844 2°46.861 -999 -999 -999  
2002-07-01 08:38:41 51°14.842 2°46.838 -999 -999 -999  
2002-07-01 08:38:46 51°14.84 2°46.809 -999 -999 -999  
2002-07-01 08:38:51 51°14.837 2°46.781 -999 -999 -999  
2002-07-01 08:38:57 51°14.833 2°46.746 -999 -999 -999  
2002-07-01 08:39:01 51°14.831 2°46.724 -999 -999 -999  
2002-07-01 08:39:06 51°14.827 2°46.695 -999 -999 -999  
2002-07-01 08:39:11 51°14.824 2°46.667 -999 -999 -999  
2002-07-01 08:39:16 51°14.821 2°46.639 -999 -999 -999  
2002-07-01 08:39:21 51°14.817 2°46.611 -999 -999 -999  
2002-07-01 08:39:26 51°14.813 2°46.582 -999 -999 -999  
2002-07-01 08:39:31 51°14.809 2°46.554 -999 -999 -999  
2002-07-01 08:39:37 51°14.805 2°46.52 -999 -999 -999  
2002-07-01 08:39:41 51°14.802 2°46.498 -999 -999 -999  
2002-07-01 08:39:46 51°14.799 2°46.469 -999 -999 -999  
2002-07-01 08:39:51 51°14.795 2°46.441 -999 -999 -999  
2002-07-01 08:39:57 51°14.791 2°46.408 -999 -999 -999  
2002-07-01 08:40:01 51°14.789 2°46.385 -999 -999 -999  
2002-07-01 08:40:08 51°14.784 2°46.345 -999 -999 -999  
2002-07-01 08:40:11 51°14.782 2°46.329 -999 -999 -999  
2002-07-01 08:40:16 51°14.778 2°46.301 -999 -999 -999  
2002-07-01 08:40:21 51°14.775 2°46.273 -999 -999 -999  
2002-07-01 08:40:26 51°14.771 2°46.245 -999 -999 -999  
2002-07-01 08:40:31 51°14.768 2°46.216 -999 -999 -999  
2002-07-01 08:40:36 51°14.764 2°46.188 -999 -999 -999  
2002-07-01 08:40:41 51°14.761 2°46.16 -999 -999 -999  
2002-07-01 08:40:46 51°14.757 2°46.131 -999 -999 -999  
2002-07-01 08:40:51 51°14.754 2°46.103 -999 -999 -999  
2002-07-01 08:40:56 51°14.751 2°46.074 -999 -999 -999  
2002-07-01 08:41:01 51°14.748 2°46.046 -999 -999 -999  
2002-07-01 08:41:06 51°14.745 2°46.017 -999 -999 -999  
2002-07-01 08:41:11 51°14.742 2°45.989 -999 -999 -999  
2002-07-01 08:41:16 51°14.739 2°45.96 -999 -999 -999  
2002-07-01 08:41:21 51°14.736 2°45.932 -999 -999 -999  
2002-07-01 08:41:26 51°14.733 2°45.903 -999 -999 -999  
2002-07-01 08:41:31 51°14.729 2°45.874 -999 -999 -999  
2002-07-01 08:41:37 51°14.724 2°45.841 -999 -999 -999  
2002-07-01 08:41:41 51°14.721 2°45.818 -999 -999 -999  
2002-07-01 08:41:46 51°14.717 2°45.79 -999 -999 -999  
2002-07-01 08:41:51 51°14.713 2°45.761 -999 -999 -999  
2002-07-01 08:41:57 51°14.709 2°45.727 -999 -999 -999  
2002-07-01 08:42:02 51°14.704 2°45.699 -999 -999 -999  
2002-07-01 08:42:07 51°14.7 2°45.671 -999 -999 -999  
2002-07-01 08:42:12 51°14.695 2°45.643 -999 -999 -999  
2002-07-01 08:42:17 51°14.691 2°45.615 -999 -999 -999  
2002-07-01 08:42:22 51°14.687 2°45.587 -999 -999 -999  
2002-07-01 08:42:27 51°14.682 2°45.558 -999 -999 -999  
2002-07-01 08:42:32 51°14.678 2°45.53 -999 -999 -999  
2002-07-01 08:42:36 51°14.675 2°45.507 -999 -999 -999  
2002-07-01 08:42:42 51°14.67 2°45.473 -999 -999 -999  
2002-07-01 08:42:46 51°14.666 2°45.45 -999 -999 -999  
2002-07-01 08:42:51 51°14.662 2°45.422 -999 -999 -999  
2002-07-01 08:42:56 51°14.657 2°45.394 -999 -999 -999  
2002-07-01 08:43:01 51°14.653 2°45.366 -999 -999 -999  
2002-07-01 08:43:06 51°14.649 2°45.337 -999 -999 -999  
2002-07-01 08:43:11 51°14.644 2°45.309 -999 -999 -999  
2002-07-01 08:43:16 51°14.64 2°45.281 -999 -999 -999  
2002-07-01 08:43:21 51°14.636 2°45.253 -999 -999 -999  
2002-07-01 08:43:26 51°14.631 2°45.225 -999 -999 -999  
2002-07-01 08:43:31 51°14.627 2°45.196 -999 -999 -999  
2002-07-01 08:43:37 51°14.622 2°45.162 -999 -999 -999  
2002-07-01 08:43:41 51°14.619 2°45.14 -999 -999 -999  
2002-07-01 08:43:46 51°14.615 2°45.112 -999 -999 -999  
2002-07-01 08:43:51 51°14.611 2°45.084 -999 -999 -999  
2002-07-01 08:43:57 51°14.606 2°45.05 -999 -999 -999  
2002-07-01 08:44:01 51°14.603 2°45.027 -999 -999 -999  
2002-07-01 08:44:06 51°14.599 2°44.999 -999 -999 -999  
2002-07-01 08:44:12 51°14.595 2°44.965 -999 -999 -999  
2002-07-01 08:44:17 51°14.591 2°44.937 -999 -999 -999  
2002-07-01 08:44:21 51°14.588 2°44.914 -999 -999 -999  
2002-07-01 08:44:26 51°14.584 2°44.886 -999 -999 -999  
2002-07-01 08:44:31 51°14.58 2°44.857 -999 -999 -999  
2002-07-01 08:44:36 51°14.577 2°44.828 -999 -999 -999  
2002-07-01 08:44:42 51°14.572 2°44.794 -999 -999 -999  
2002-07-01 08:44:46 51°14.569 2°44.771 -999 -999 -999  
2002-07-01 08:44:51 51°14.565 2°44.743 -999 -999 -999  
2002-07-01 08:44:56 51°14.562 2°44.714 -999 -999 -999  
2002-07-01 08:45:01 51°14.558 2°44.685 -999 -999 -999  
2002-07-01 08:45:06 51°14.554 2°44.657 -999 -999 -999  
2002-07-01 08:45:11 51°14.55 2°44.628 -999 -999 -999  
2002-07-01 08:45:17 51°14.545 2°44.594 -999 -999 -999  
2002-07-01 08:45:22 51°14.542 2°44.565 -999 -999 -999  
2002-07-01 08:45:27 51°14.538 2°44.537 -999 -999 -999  
2002-07-01 08:45:31 51°14.535 2°44.514 -999 -999 -999  
2002-07-01 08:45:36 51°14.531 2°44.486 -999 -999 -999  
2002-07-01 08:45:41 51°14.527 2°44.457 -999 -999 -999  
2002-07-01 08:45:46 51°14.523 2°44.428 -999 -999 -999  
2002-07-01 08:45:51 51°14.52 2°44.4 -999 -999 -999  
2002-07-01 08:45:56 51°14.516 2°44.371 -999 -999 -999  
2002-07-01 08:46:02 51°14.511 2°44.337 -999 -999 -999  
2002-07-01 08:46:06 51°14.508 2°44.314 -999 -999 -999  
2002-07-01 08:46:11 51°14.504 2°44.286 -999 -999 -999  
2002-07-01 08:46:18 51°14.499 2°44.246 -999 -999 -999  
2002-07-01 08:46:21 51°14.497 2°44.229 -999 -999 -999  
2002-07-01 08:46:26 51°14.493 2°44.201 -999 -999 -999  
2002-07-01 08:46:31 51°14.49 2°44.173 -999 -999 -999  
2002-07-01 08:46:36 51°14.486 2°44.145 -999 -999 -999  
2002-07-01 08:46:41 51°14.482 2°44.116 -999 -999 -999  
2002-07-01 08:46:46 51°14.478 2°44.088 -999 -999 -999  
2002-07-01 08:46:52 51°14.474 2°44.054 -999 -999 -999  
2002-07-01 08:46:57 51°14.47 2°44.026 -999 -999 -999  
2002-07-01 08:47:02 51°14.466 2°43.998 -999 -999 -999  
2002-07-01 08:47:06 51°14.463 2°43.975 -999 -999 -999  
2002-07-01 08:47:11 51°14.459 2°43.947 -999 -999 -999  
2002-07-01 08:47:16 51°14.456 2°43.918 -999 -999 -999  
2002-07-01 08:47:21 51°14.452 2°43.89 -999 -999 -999  
2002-07-01 08:47:27 51°14.447 2°43.856 -999 -999 -999  
2002-07-01 08:47:32 51°14.443 2°43.828 -999 -999 -999  
2002-07-01 08:47:37 51°14.44 2°43.8 -999 -999 -999  
2002-07-01 08:47:41 51°14.436 2°43.778 -999 -999 -999  
2002-07-01 08:47:46 51°14.433 2°43.75 -999 -999 -999  
2002-07-01 08:47:51 51°14.429 2°43.722 -999 -999 -999  
2002-07-01 08:47:56 51°14.425 2°43.694 -999 -999 -999  
2002-07-01 08:48:01 51°14.421 2°43.665 -999 -999 -999  
2002-07-01 08:48:06 51°14.418 2°43.637 -999 -999 -999  
2002-07-01 08:48:11 51°14.414 2°43.609 -999 -999 -999  
2002-07-01 08:48:16 51°14.411 2°43.581 -999 -999 -999  
2002-07-01 08:48:22 51°14.406 2°43.546 -999 -999 -999  
2002-07-01 08:48:26 51°14.403 2°43.524 -999 -999 -999  
2002-07-01 08:48:31 51°14.399 2°43.496 -999 -999 -999  
2002-07-01 08:48:36 51°14.395 2°43.467 -999 -999 -999  
2002-07-01 08:48:41 51°14.391 2°43.439 -999 -999 -999  
2002-07-01 08:48:46 51°14.388 2°43.41 -999 -999 -999  
2002-07-01 08:48:51 51°14.384 2°43.382 -999 -999 -999  
2002-07-01 08:48:56 51°14.38 2°43.354 -999 -999 -999  
2002-07-01 08:49:01 51°14.376 2°43.326 -999 -999 -999  
2002-07-01 08:49:06 51°14.373 2°43.297 -999 -999 -999  
2002-07-01 08:49:11 51°14.369 2°43.269 -999 -999 -999  
2002-07-01 08:49:16 51°14.365 2°43.241 -999 -999 -999  
2002-07-01 08:49:22 51°14.361 2°43.206 -999 -999 -999  
2002-07-01 08:49:26 51°14.357 2°43.183 -999 -999 -999  
2002-07-01 08:49:31 51°14.354 2°43.155 -999 -999 -999  
2002-07-01 08:49:36 51°14.35 2°43.127 -999 -999 -999  
2002-07-01 08:49:41 51°14.346 2°43.098 -999 -999 -999  
2002-07-01 08:49:46 51°14.342 2°43.07 -999 -999 -999  
2002-07-01 08:49:52 51°14.337 2°43.036 -999 -999 -999  
2002-07-01 08:49:57 51°14.334 2°43.008 -999 -999 -999  
2002-07-01 08:50:02 51°14.33 2°42.98 -999 -999 -999  
2002-07-01 08:50:06 51°14.327 2°42.957 -999 -999 -999  
2002-07-01 08:50:11 51°14.324 2°42.928 -999 -999 -999  
2002-07-01 08:50:16 51°14.32 2°42.9 -999 -999 -999  
2002-07-01 08:50:21 51°14.317 2°42.872 -999 -999 -999  
2002-07-01 08:50:27 51°14.312 2°42.839 -999 -999 -999  
2002-07-01 08:50:32 51°14.308 2°42.811 -999 -999 -999  
2002-07-01 08:50:36 51°14.304 2°42.789 -999 -999 -999  
2002-07-01 08:50:41 51°14.301 2°42.761 -999 -999 -999  
2002-07-01 08:50:46 51°14.297 2°42.732 -999 -999 -999  
2002-07-01 08:50:51 51°14.293 2°42.704 -999 -999 -999  
2002-07-01 08:50:56 51°14.289 2°42.677 -999 -999 -999  
2002-07-01 08:51:02 51°14.285 2°42.642 -999 -999 -999  
2002-07-01 08:51:06 51°14.282 2°42.619 -999 -999 -999  
2002-07-01 08:51:11 51°14.278 2°42.591 -999 -999 -999  
2002-07-01 08:51:16 51°14.274 2°42.563 -999 -999 -999  
2002-07-01 08:51:21 51°14.271 2°42.535 -999 -999 -999  
2002-07-01 08:51:26 51°14.267 2°42.507 -999 -999 -999  
2002-07-01 08:51:31 51°14.263 2°42.479 -999 -999 -999  
2002-07-01 08:51:36 51°14.259 2°42.45 -999 -999 -999  
2002-07-01 08:51:41 51°14.255 2°42.422 -999 -999 -999  
2002-07-01 08:51:46 51°14.252 2°42.393 -999 -999 -999  
2002-07-01 08:51:51 51°14.248 2°42.365 -999 -999 -999  
2002-07-01 08:51:56 51°14.244 2°42.337 -999 -999 -999  
2002-07-01 08:52:01 51°14.241 2°42.308 -999 -999 -999  
2002-07-01 08:52:06 51°14.237 2°42.28 -999 -999 -999  
2002-07-01 08:52:11 51°14.233 2°42.251 -999 -999 -999  
2002-07-01 08:52:16 51°14.23 2°42.223 -999 -999 -999  
2002-07-01 08:52:22 51°14.226 2°42.188 -999 -999 -999  
2002-07-01 08:52:26 51°14.223 2°42.165 -999 -999 -999  
2002-07-01 08:52:31 51°14.219 2°42.136 -999 -999 -999  
2002-07-01 08:52:36 51°14.216 2°42.108 -999 -999 -999  
2002-07-01 08:52:42 51°14.211 2°42.074 -999 -999 -999  
2002-07-01 08:52:46 51°14.208 2°42.052 -999 -999 -999  
2002-07-01 08:52:51 51°14.204 2°42.023 -999 -999 -999  
2002-07-01 08:52:56 51°14.2 2°41.995 -999 -999 -999  
2002-07-01 08:53:01 51°14.196 2°41.967 -999 -999 -999  
2002-07-01 08:53:06 51°14.193 2°41.939 -999 -999 -999  
2002-07-01 08:53:11 51°14.189 2°41.911 -999 -999 -999  
2002-07-01 08:53:17 51°14.184 2°41.88 -999 -999 -999  
2002-07-01 08:53:21 51°14.182 2°41.861 -999 -999 -999  
2002-07-01 08:53:26 51°14.178 2°41.839 -999 -999 -999  
2002-07-01 08:53:31 51°14.175 2°41.817 -999 -999 -999  
2002-07-01 08:53:37 51°14.172 2°41.793 -999 -999 -999  
2002-07-01 08:53:41 51°14.169 2°41.778 -999 -999 -999  
2002-07-01 08:53:46 51°14.167 2°41.76 -999 -999 -999  
2002-07-01 08:53:52 51°14.164 2°41.74 -999 -999 -999  
2002-07-01 08:53:56 51°14.162 2°41.727 -999 -999 -999  
2002-07-01 08:54:02 51°14.16 2°41.709 -999 -999 -999  
2002-07-01 08:54:07 51°14.158 2°41.694 -999 -999 -999  
2002-07-01 08:54:11 51°14.156 2°41.682 -999 -999 -999  
2002-07-01 08:54:17 51°14.154 2°41.666 -999 -999 -999  
2002-07-01 08:54:21 51°14.153 2°41.655 -999 -999 -999  
2002-07-01 08:54:26 51°14.151 2°41.643 -999 -999 -999  
2002-07-01 08:54:31 51°14.15 2°41.63 -999 -999 -999  
2002-07-01 08:54:37 51°14.148 2°41.615 -999 -999 -999  
2002-07-01 08:54:41 51°14.148 2°41.606 -999 -999 -999  
2002-07-01 08:54:46 51°14.146 2°41.595 -999 -999 -999  
2002-07-01 08:54:51 51°14.145 2°41.583 -999 -999 -999  
2002-07-01 08:54:57 51°14.143 2°41.57 -999 -999 -999  
2002-07-01 08:55:01 51°14.142 2°41.561 -999 -999 -999  
2002-07-01 08:55:06 51°14.141 2°41.551 -999 -999 -999  
2002-07-01 08:55:12 51°14.139 2°41.538 -999 -999 -999  
2002-07-01 08:55:17 51°14.137 2°41.528 -999 -999 -999  
2002-07-01 08:55:21 51°14.136 2°41.521 -999 -999 -999  
2002-07-01 08:55:26 51°14.134 2°41.511 -999 -999 -999  
2002-07-01 08:55:31 51°14.132 2°41.501 -999 -999 -999  
2002-07-01 08:55:37 51°14.13 2°41.49 -999 -999 -999  
2002-07-01 08:55:41 51°14.129 2°41.482 -999 -999 -999  
2002-07-01 08:55:46 51°14.128 2°41.473 -999 -999 -999  
2002-07-01 08:55:52 51°14.126 2°41.462 -999 -999 -999  
2002-07-01 08:55:56 51°14.125 2°41.456 -999 -999 -999  
2002-07-01 08:56:01 51°14.124 2°41.448 -999 -999 -999  
2002-07-01 08:56:06 51°14.122 2°41.44 -999 -999 -999  
2002-07-01 08:56:11 51°14.121 2°41.432 -999 -999 -999  
2002-07-01 08:56:16 51°14.12 2°41.424 -999 -999 -999  
2002-07-01 08:56:21 51°14.119 2°41.416 -999 -999 -999  
2002-07-01 08:56:26 51°14.118 2°41.409 -999 -999 -999  
2002-07-01 08:56:31 51°14.117 2°41.401 -999 -999 -999  
2002-07-01 08:56:36 51°14.116 2°41.394 -999 -999 -999  
2002-07-01 08:56:42 51°14.116 2°41.386 -999 -999 -999  
2002-07-01 08:56:46 51°14.115 2°41.381 -999 -999 -999  
2002-07-01 08:56:51 51°14.115 2°41.375 -999 -999 -999  
2002-07-01 08:56:57 51°14.114 2°41.367 -999 -999 -999  
2002-07-01 08:57:01 51°14.114 2°41.363 -999 -999 -999  
2002-07-01 08:57:06 51°14.114 2°41.357 -999 -999 -999  
2002-07-01 08:57:11 51°14.113 2°41.351 -999 -999 -999  
2002-07-01 08:57:16 51°14.113 2°41.346 -999 -999 -999  
2002-07-01 08:57:21 51°14.112 2°41.34 -999 -999 -999  
2002-07-01 08:57:27 51°14.112 2°41.334 -999 -999 -999  
2002-07-01 08:57:32 51°14.112 2°41.329 -999 -999 -999  
2002-07-01 08:57:35 51°14.112 2°41.326 -999 -999 -999  
2002-07-01 08:57:41 51°14.112 2°41.32 -999 -999 -999  
2002-07-01 08:57:46 51°14.112 2°41.315 -999 -999 -999  
2002-07-01 08:57:51 51°14.112 2°41.311 -999 -999 -999  
2002-07-01 08:57:56 51°14.112 2°41.306 -999 -999 -999  
2002-07-01 08:58:01 51°14.112 2°41.301 -999 -999 -999  
2002-07-01 08:58:06 51°14.112 2°41.297 -999 -999 -999  
2002-07-01 08:58:11 51°14.112 2°41.292 -999 -999 -999  
2002-07-01 08:58:17 51°14.112 2°41.287 -999 -999 -999  
2002-07-01 08:58:21 51°14.112 2°41.285 -999 -999 -999  
2002-07-01 08:58:26 51°14.113 2°41.281 -999 -999 -999  
2002-07-01 08:58:31 51°14.113 2°41.277 -999 -999 -999  
2002-07-01 08:58:37 51°14.113 2°41.272 -999 -999 -999  
2002-07-01 08:58:43 51°14.113 2°41.268 -999 -999 -999  
2002-07-01 08:58:46 51°14.113 2°41.265 -999 -999 -999  
2002-07-01 08:58:51 51°14.113 2°41.261 -999 -999 -999  
2002-07-01 08:58:57 51°14.113 2°41.257 -999 -999 -999  
2002-07-01 08:59:01 51°14.114 2°41.254 -999 -999 -999  
2002-07-01 08:59:07 51°14.114 2°41.25 -999 -999 -999  
2002-07-01 08:59:11 51°14.115 2°41.247 -999 -999 -999  
2002-07-01 08:59:17 51°14.115 2°41.243 -999 -999 -999  
2002-07-01 08:59:21 51°14.115 2°41.239 -999 -999 -999  
2002-07-01 08:59:26 51°14.115 2°41.236 -999 -999 -999  
2002-07-01 08:59:31 51°14.115 2°41.232 -999 -999 -999  
2002-07-01 08:59:35 51°14.115 2°41.229 -999 -999 -999  
2002-07-01 08:59:41 51°14.116 2°41.225 -999 -999 -999  
2002-07-01 08:59:47 51°14.116 2°41.221 -999 -999 -999  
2002-07-01 08:59:51 51°14.116 2°41.218 -999 -999 -999  
2002-07-01 08:59:57 51°14.116 2°41.214 -999 -999 -999  
2002-07-01 09:00:01 51°14.115 2°41.211 -999 -999 -999  
2002-07-01 09:00:06 51°14.115 2°41.207 -999 -999 -999  
2002-07-01 09:00:11 51°14.115 2°41.204 -999 -999 -999  
2002-07-01 09:00:16 51°14.115 2°41.2 -999 -999 -999  
2002-07-01 09:00:22 51°14.115 2°41.195 -999 -999 -999  
2002-07-01 09:00:27 51°14.114 2°41.192 -999 -999 -999  
2002-07-01 09:00:31 51°14.114 2°41.189 -999 -999 -999  
2002-07-01 09:00:36 51°14.114 2°41.185 -999 -999 -999  
2002-07-01 09:00:41 51°14.114 2°41.181 -999 -999 -999  
2002-07-01 09:00:47 51°14.113 2°41.175 -999 -999 -999  
2002-07-01 09:00:51 51°14.112 2°41.172 -999 -999 -999  
2002-07-01 09:00:57 51°14.111 2°41.166 -999 -999 -999  
2002-07-01 09:01:01 51°14.11 2°41.162 -999 -999 -999  
2002-07-01 09:01:07 51°14.109 2°41.156 -999 -999 -999  
2002-07-01 09:01:11 51°14.109 2°41.152 -999 -999 -999  
2002-07-01 09:01:17 51°14.107 2°41.145 -999 -999 -999  
2002-07-01 09:01:21 51°14.106 2°41.141 -999 -999 -999  
2002-07-01 09:01:26 51°14.105 2°41.135 -999 -999 -999  
2002-07-01 09:01:31 51°14.103 2°41.13 -999 -999 -999  
2002-07-01 09:01:37 51°14.102 2°41.123 -999 -999 -999  
2002-07-01 09:01:42 51°14.102 2°41.117 -999 -999 -999  
2002-07-01 09:01:46 51°14.101 2°41.112 -999 -999 -999  
2002-07-01 09:01:51 51°14.101 2°41.107 -999 -999 -999  
2002-07-01 09:01:56 51°14.1 2°41.101 -999 -999 -999  
2002-07-01 09:02:01 51°14.1 2°41.095 -999 -999 -999  
2002-07-01 09:02:07 51°14.1 2°41.089 -999 -999 -999  
2002-07-01 09:02:11 51°14.1 2°41.084 -999 -999 -999  
2002-07-01 09:02:16 51°14.1 2°41.08 -999 -999 -999  
2002-07-01 09:02:21 51°14.1 2°41.075 -999 -999 -999  
2002-07-01 09:02:26 51°14.1 2°41.07 -999 -999 -999  
2002-07-01 09:02:31 51°14.101 2°41.066 -999 -999 -999  
2002-07-01 09:02:36 51°14.101 2°41.062 -999 -999 -999  
2002-07-01 09:02:42 51°14.102 2°41.057 -999 -999 -999  
2002-07-01 09:02:46 51°14.103 2°41.054 -999 -999 -999  
2002-07-01 09:02:51 51°14.103 2°41.05 -999 -999 -999  
2002-07-01 09:02:57 51°14.104 2°41.045 -999 -999 -999  
2002-07-01 09:03:01 51°14.104 2°41.043 -999 -999 -999  
2002-07-01 09:03:06 51°14.105 2°41.039 -999 -999 -999  
2002-07-01 09:03:11 51°14.106 2°41.036 -999 -999 -999  
2002-07-01 09:03:15 51°14.106 2°41.034 -999 -999 -999  
2002-07-01 09:03:22 51°14.107 2°41.03 -999 -999 -999  
2002-07-01 09:03:26 51°14.107 2°41.027 -999 -999 -999  
2002-07-01 09:03:31 51°14.108 2°41.025 -999 -999 -999  
2002-07-01 09:03:36 51°14.109 2°41.022 -999 -999 -999  
2002-07-01 09:03:41 51°14.11 2°41.02 -999 -999 -999  
2002-07-01 09:03:47 51°14.11 2°41.017 -999 -999 -999  
2002-07-01 09:03:51 51°14.111 2°41.016 -999 -999 -999  
2002-07-01 09:03:56 51°14.112 2°41.014 -999 -999 -999  
2002-07-01 09:04:02 51°14.113 2°41.012 -999 -999 -999  
2002-07-01 09:04:06 51°14.114 2°41.011 -999 -999 -999  
2002-07-01 09:04:11 51°14.115 2°41.01 -999 -999 -999  
2002-07-01 09:04:17 51°14.117 2°41.008 -999 -999 -999  
2002-07-01 09:04:21 51°14.118 2°41.007 -999 -999 -999  
2002-07-01 09:04:27 51°14.119 2°41.005 -999 -999 -999  
2002-07-01 09:04:31 51°14.12 2°41.004 -999 -999 -999  
2002-07-01 09:04:37 51°14.121 2°41.002 -999 -999 -999  
2002-07-01 09:04:41 51°14.122 2°41.001 -999 -999 -999  
2002-07-01 09:04:46 51°14.124 2°41 -999 -999 -999  
2002-07-01 09:04:51 51°14.125 2°40.999 -999 -999 -999  
2002-07-01 09:04:57 51°14.127 2°40.997 -999 -999 -999  
2002-07-01 09:05:01 51°14.127 2°40.996 -999 -999 -999  
2002-07-01 09:05:06 51°14.129 2°40.995 -999 -999 -999  
2002-07-01 09:05:11 51°14.13 2°40.993 -999 -999 -999  
2002-07-01 09:05:17 51°14.132 2°40.992 -999 -999 -999  
2002-07-01 09:05:21 51°14.133 2°40.991 -999 -999 -999  
2002-07-01 09:05:26 51°14.135 2°40.99 -999 -999 -999  
2002-07-01 09:05:31 51°14.136 2°40.989 -999 -999 -999  
2002-07-01 09:05:37 51°14.138 2°40.988 -999 -999 -999  
2002-07-01 09:05:42 51°14.14 2°40.987 -999 -999 -999  
2002-07-01 09:05:46 51°14.141 2°40.986 -999 -999 -999  
2002-07-01 09:05:51 51°14.143 2°40.986 -999 -999 -999  
2002-07-01 09:05:56 51°14.144 2°40.985 -999 -999 -999  
2002-07-01 09:06:01 51°14.146 2°40.984 -999 -999 -999  
2002-07-01 09:06:06 51°14.148 2°40.981 -999 -999 -999  
2002-07-01 09:06:11 51°14.15 2°40.977 -999 -999 -999  
2002-07-01 09:06:16 51°14.153 2°40.972 -999 -999 -999  
2002-07-01 09:06:21 51°14.156 2°40.965 -999 -999 -999  
2002-07-01 09:06:26 51°14.16 2°40.958 -999 -999 -999  
2002-07-01 09:06:31 51°14.165 2°40.952 -999 -999 -999  
2002-07-01 09:06:36 51°14.171 2°40.946 -999 -999 -999  
2002-07-01 09:06:42 51°14.178 2°40.94 -999 -999 -999  
2002-07-01 09:06:46 51°14.184 2°40.937 -999 -999 -999  
2002-07-01 09:06:51 51°14.191 2°40.934 -999 -999 -999  
2002-07-01 09:06:56 51°14.2 2°40.934 -999 -999 -999  
2002-07-01 09:07:02 51°14.211 2°40.937 -999 -999 -999  
2002-07-01 09:07:06 51°14.218 2°40.941 -999 -999 -999  
2002-07-01 09:07:11 51°14.226 2°40.95 -999 -999 -999  
2002-07-01 09:07:16 51°14.233 2°40.959 -999 -999 -999  
2002-07-01 09:07:22 51°14.239 2°40.974 -999 -999 -999  
2002-07-01 09:07:26 51°14.242 2°40.984 -999 -999 -999  
2002-07-01 09:07:31 51°14.245 2°40.997 -999 -999 -999  
2002-07-01 09:07:37 51°14.246 2°41.014 -999 -999 -999  
2002-07-01 09:07:41 51°14.245 2°41.023 -999 -999 -999  
2002-07-01 09:07:46 51°14.244 2°41.035 -999 -999 -999  
2002-07-01 09:07:52 51°14.243 2°41.047 -999 -999 -999  
2002-07-01 09:07:56 51°14.242 2°41.055 -999 -999 -999  
2002-07-01 09:08:01 51°14.239 2°41.066 -999 -999 -999  
2002-07-01 09:08:06 51°14.237 2°41.077 -999 -999 -999  
2002-07-01 09:08:11 51°14.233 2°41.087 -999 -999 -999  
2002-07-01 09:08:16 51°14.228 2°41.096 -999 -999 -999  
2002-07-01 09:08:21 51°14.221 2°41.105 -999 -999 -999  
2002-07-01 09:08:26 51°14.214 2°41.111 -999 -999 -999  
2002-07-01 09:08:31 51°14.206 2°41.115 -999 -999 -999  
2002-07-01 09:08:37 51°14.196 2°41.118 -999 -999 -999  
2002-07-01 09:08:41 51°14.19 2°41.119 -999 -999 -999  
2002-07-01 09:08:46 51°14.182 2°41.119 -999 -999 -999  
2002-07-01 09:08:51 51°14.174 2°41.118 -999 -999 -999  
2002-07-01 09:08:57 51°14.163 2°41.117 -999 -999 -999  
2002-07-01 09:09:02 51°14.155 2°41.115 -999 -999 -999  
2002-07-01 09:09:07 51°14.147 2°41.115 -999 -999 -999  
2002-07-01 09:09:11 51°14.14 2°41.114 -999 -999 -999  
2002-07-01 09:09:17 51°14.131 2°41.114 -999 -999 -999  
2002-07-01 09:09:21 51°14.125 2°41.113 -999 -999 -999  
2002-07-01 09:09:26 51°14.118 2°41.113 -999 -999 -999  
2002-07-01 09:09:31 51°14.111 2°41.113 -999 -999 -999  
2002-07-01 09:09:37 51°14.103 2°41.114 -999 -999 -999  
2002-07-01 09:09:41 51°14.099 2°41.114 -999 -999 -999  
2002-07-01 09:09:46 51°14.095 2°41.113 -999 -999 -999  
2002-07-01 09:09:51 51°14.091 2°41.114 -999 -999 -999  
2002-07-01 09:09:56 51°14.089 2°41.114 -999 -999 -999  
2002-07-01 09:10:01 51°14.088 2°41.114 -999 -999 -999  
2002-07-01 09:10:06 51°14.087 2°41.115 -999 -999 -999  
2002-07-01 09:10:11 51°14.086 2°41.115 -999 -999 -999  
2002-07-01 09:10:15 51°14.085 2°41.115 -999 -999 -999  
2002-07-01 09:10:21 51°14.084 2°41.116 -999 -999 -999  
2002-07-01 09:10:27 51°14.084 2°41.116 -999 -999 -999  
2002-07-01 09:10:31 51°14.083 2°41.118 -999 -999 -999  
2002-07-01 09:10:35 51°14.083 2°41.118 -999 -999 -999  
2002-07-01 09:10:41 51°14.082 2°41.118 -999 -999 -999  
2002-07-01 09:10:47 51°14.082 2°41.119 -999 -999 -999  
2002-07-01 09:10:51 51°14.082 2°41.12 -999 -999 -999  
2002-07-01 09:10:57 51°14.081 2°41.121 -999 -999 -999  
2002-07-01 09:11:01 51°14.081 2°41.121 -999 -999 -999  
2002-07-01 09:11:06 51°14.081 2°41.123 -999 -999 -999  
2002-07-01 09:11:11 51°14.081 2°41.123 -999 -999 -999  
2002-07-01 09:11:16 51°14.081 2°41.125 -999 -999 -999  
2002-07-01 09:11:21 51°14.08 2°41.125 -999 -999 -999  
2002-07-01 09:11:27 51°14.08 2°41.126 -999 -999 -999  
2002-07-01 09:11:31 51°14.08 2°41.127 -999 -999 -999  
2002-07-01 09:11:36 51°14.08 2°41.128 -999 -999 -999  
2002-07-01 09:11:41 51°14.081 2°41.129 -999 -999 -999  
2002-07-01 09:11:46 51°14.081 2°41.13 -999 -999 -999  
2002-07-01 09:11:51 51°14.081 2°41.131 -999 -999 -999  
2002-07-01 09:11:56 51°14.081 2°41.132 -999 -999 -999  
2002-07-01 09:12:01 51°14.081 2°41.133 -999 -999 -999  
2002-07-01 09:12:06 51°14.082 2°41.134 -999 -999 -999  
2002-07-01 09:12:11 51°14.082 2°41.135 -999 -999 -999  
2002-07-01 09:12:16 51°14.083 2°41.136 -999 -999 -999  
2002-07-01 09:12:21 51°14.083 2°41.137 -999 -999 -999  
2002-07-01 09:12:26 51°14.084 2°41.138 -999 -999 -999  
2002-07-01 09:12:31 51°14.084 2°41.139 -999 -999 -999  
2002-07-01 09:12:37 51°14.085 2°41.14 -999 -999 -999  
2002-07-01 09:12:42 51°14.086 2°41.141 -999 -999 -999  
2002-07-01 09:12:46 51°14.086 2°41.142 -999 -999 -999  
2002-07-01 09:12:51 51°14.087 2°41.143 -999 -999 -999  
2002-07-01 09:12:57 51°14.088 2°41.144 -999 -999 -999  
2002-07-01 09:13:01 51°14.088 2°41.145 -999 -999 -999  
2002-07-01 09:13:07 51°14.09 2°41.146 -999 -999 -999  
2002-07-01 09:13:12 51°14.09 2°41.147 -999 -999 -999  
2002-07-01 09:13:17 51°14.091 2°41.148 -999 -999 -999  
2002-07-01 09:13:21 51°14.092 2°41.149 -999 -999 -999  
2002-07-01 09:13:26 51°14.093 2°41.15 -999 -999 -999  
2002-07-01 09:13:31 51°14.094 2°41.151 -999 -999 -999  
2002-07-01 09:13:36 51°14.094 2°41.152 -999 -999 -999  
2002-07-01 09:13:41 51°14.095 2°41.153 -999 -999 -999  
2002-07-01 09:13:46 51°14.096 2°41.154 -999 -999 -999  
2002-07-01 09:13:51 51°14.097 2°41.155 -999 -999 -999  
2002-07-01 09:13:56 51°14.097 2°41.156 -999 -999 -999  
2002-07-01 09:14:01 51°14.098 2°41.157 -999 -999 -999  
2002-07-01 09:14:06 51°14.099 2°41.158 -999 -999 -999  
2002-07-01 09:14:11 51°14.1 2°41.159 -999 -999 -999  
2002-07-01 09:14:17 51°14.101 2°41.16 -999 -999 -999  
2002-07-01 09:14:22 51°14.102 2°41.161 -999 -999 -999  
2002-07-01 09:14:26 51°14.103 2°41.161 -999 -999 -999  
2002-07-01 09:14:31 51°14.103 2°41.162 -999 -999 -999  
2002-07-01 09:14:36 51°14.104 2°41.163 -999 -999 -999  
2002-07-01 09:14:41 51°14.105 2°41.164 -999 -999 -999  
2002-07-01 09:14:46 51°14.106 2°41.164 -999 -999 -999  
2002-07-01 09:14:51 51°14.107 2°41.165 -999 -999 -999  
2002-07-01 09:14:56 51°14.108 2°41.165 -999 -999 -999  
2002-07-01 09:15:02 51°14.109 2°41.166 -999 -999 -999  
2002-07-01 09:15:06 51°14.109 2°41.166 -999 -999 -999  
2002-07-01 09:15:11 51°14.11 2°41.167 -999 -999 -999  
2002-07-01 09:15:17 51°14.112 2°41.167 -999 -999 -999  
2002-07-01 09:15:21 51°14.113 2°41.168 -999 -999 -999  
2002-07-01 09:15:26 51°14.114 2°41.168 -999 -999 -999  
2002-07-01 09:15:31 51°14.115 2°41.168 -999 -999 -999  
2002-07-01 09:15:37 51°14.117 2°41.169 -999 -999 -999  
2002-07-01 09:15:41 51°14.118 2°41.169 -999 -999 -999  
2002-07-01 09:15:47 51°14.119 2°41.169 -999 -999 -999  
2002-07-01 09:15:51 51°14.12 2°41.168 -999 -999 -999  
2002-07-01 09:15:57 51°14.122 2°41.169 -999 -999 -999  
2002-07-01 09:16:01 51°14.123 2°41.169 -999 -999 -999  
2002-07-01 09:16:06 51°14.124 2°41.168 -999 -999 -999  
2002-07-01 09:16:11 51°14.125 2°41.168 -999 -999 -999  
2002-07-01 09:16:16 51°14.127 2°41.168 -999 -999 -999  
2002-07-01 09:16:21 51°14.128 2°41.168 -999 -999 -999  
2002-07-01 09:16:25 51°14.129 2°41.168 -999 -999 -999  
2002-07-01 09:16:31 51°14.131 2°41.168 -999 -999 -999  
2002-07-01 09:16:35 51°14.132 2°41.168 -999 -999 -999  
2002-07-01 09:16:42 51°14.133 2°41.167 -999 -999 -999  
2002-07-01 09:16:47 51°14.135 2°41.167 -999 -999 -999  
2002-07-01 09:16:51 51°14.136 2°41.167 -999 -999 -999  
2002-07-01 09:16:57 51°14.137 2°41.166 -999 -999 -999  
2002-07-01 09:17:01 51°14.139 2°41.166 -999 -999 -999  
2002-07-01 09:17:06 51°14.14 2°41.166 -999 -999 -999  
2002-07-01 09:17:11 51°14.142 2°41.165 -999 -999 -999  
2002-07-01 09:17:16 51°14.143 2°41.165 -999 -999 -999  
2002-07-01 09:17:21 51°14.144 2°41.165 -999 -999 -999  
2002-07-01 09:17:27 51°14.145 2°41.164 -999 -999 -999  
2002-07-01 09:17:31 51°14.147 2°41.164 -999 -999 -999  
2002-07-01 09:17:36 51°14.148 2°41.164 -999 -999 -999  
2002-07-01 09:17:41 51°14.149 2°41.164 -999 -999 -999  
2002-07-01 09:17:46 51°14.15 2°41.163 -999 -999 -999  
2002-07-01 09:17:51 51°14.151 2°41.163 -999 -999 -999  
2002-07-01 09:17:57 51°14.153 2°41.164 -999 -999 -999  
2002-07-01 09:18:01 51°14.153 2°41.165 -999 -999 -999  
2002-07-01 09:18:06 51°14.154 2°41.167 -999 -999 -999  
2002-07-01 09:18:11 51°14.154 2°41.171 -999 -999 -999  
2002-07-01 09:18:16 51°14.154 2°41.175 -999 -999 -999  
2002-07-01 09:18:22 51°14.152 2°41.18 -999 -999 -999  
2002-07-01 09:18:27 51°14.149 2°41.186 -999 -999 -999  
2002-07-01 09:18:31 51°14.147 2°41.19 -999 -999 -999  
2002-07-01 09:18:37 51°14.142 2°41.196 -999 -999 -999  
2002-07-01 09:18:41 51°14.138 2°41.199 -999 -999 -999  
2002-07-01 09:18:46 51°14.132 2°41.203 -999 -999 -999  
2002-07-01 09:18:51 51°14.125 2°41.205 -999 -999 -999  
2002-07-01 09:18:57 51°14.116 2°41.205 -999 -999 -999  
2002-07-01 09:19:02 51°14.109 2°41.204 -999 -999 -999  
2002-07-01 09:19:06 51°14.103 2°41.201 -999 -999 -999  
2002-07-01 09:19:11 51°14.096 2°41.196 -999 -999 -999  
2002-07-01 09:19:17 51°14.088 2°41.187 -999 -999 -999  
2002-07-01 09:19:21 51°14.084 2°41.181 -999 -999 -999  
2002-07-01 09:19:26 51°14.08 2°41.171 -999 -999 -999  
2002-07-01 09:19:31 51°14.077 2°41.163 -999 -999 -999  
2002-07-01 09:19:36 51°14.075 2°41.155 -999 -999 -999  
2002-07-01 09:19:41 51°14.072 2°41.147 -999 -999 -999  
2002-07-01 09:19:45 51°14.07 2°41.141 -999 -999 -999  
2002-07-01 09:19:51 51°14.068 2°41.133 -999 -999 -999  
2002-07-01 09:19:55 51°14.067 2°41.127 -999 -999 -999  
2002-07-01 09:20:02 51°14.065 2°41.118 -999 -999 -999  
2002-07-01 09:20:06 51°14.064 2°41.113 -999 -999 -999  
2002-07-01 09:20:11 51°14.064 2°41.108 -999 -999 -999  
2002-07-01 09:20:17 51°14.063 2°41.102 -999 -999 -999  
2002-07-01 09:20:21 51°14.063 2°41.099 -999 -999 -999  
2002-07-01 09:20:26 51°14.063 2°41.095 -999 -999 -999  
2002-07-01 09:20:31 51°14.062 2°41.091 -999 -999 -999  
2002-07-01 09:20:36 51°14.063 2°41.087 -999 -999 -999  
2002-07-01 09:20:42 51°14.063 2°41.083 -999 -999 -999  
2002-07-01 09:20:47 51°14.063 2°41.08 -999 -999 -999  
2002-07-01 09:20:51 51°14.063 2°41.077 -999 -999 -999  
2002-07-01 09:20:56 51°14.064 2°41.074 -999 -999 -999  
2002-07-01 09:21:01 51°14.064 2°41.071 -999 -999 -999  
2002-07-01 09:21:06 51°14.064 2°41.068 -999 -999 -999  
2002-07-01 09:21:11 51°14.065 2°41.065 -999 -999 -999  
2002-07-01 09:21:17 51°14.066 2°41.062 -999 -999 -999  
2002-07-01 09:21:22 51°14.066 2°41.059 -999 -999 -999  
2002-07-01 09:21:26 51°14.067 2°41.057 -999 -999 -999  
2002-07-01 09:21:31 51°14.067 2°41.055 -999 -999 -999  
2002-07-01 09:21:36 51°14.068 2°41.052 -999 -999 -999  
2002-07-01 09:21:42 51°14.069 2°41.05 -999 -999 -999  
2002-07-01 09:21:47 51°14.07 2°41.048 -999 -999 -999  
2002-07-01 09:21:51 51°14.071 2°41.046 -999 -999 -999  
2002-07-01 09:21:57 51°14.072 2°41.043 -999 -999 -999  
2002-07-01 09:22:01 51°14.073 2°41.041 -999 -999 -999  
2002-07-01 09:22:06 51°14.074 2°41.04 -999 -999 -999  
2002-07-01 09:22:11 51°14.075 2°41.038 -999 -999 -999  
2002-07-01 09:22:17 51°14.076 2°41.036 -999 -999 -999  
2002-07-01 09:22:22 51°14.077 2°41.034 -999 -999 -999  
2002-07-01 09:22:27 51°14.078 2°41.032 -999 -999 -999  
2002-07-01 09:22:31 51°14.079 2°41.03 -999 -999 -999  
2002-07-01 09:22:37 51°14.08 2°41.028 -999 -999 -999  
2002-07-01 09:22:41 51°14.081 2°41.027 -999 -999 -999  
2002-07-01 09:22:46 51°14.082 2°41.025 -999 -999 -999  
2002-07-01 09:22:51 51°14.083 2°41.024 -999 -999 -999  
2002-07-01 09:22:56 51°14.085 2°41.023 -999 -999 -999  
2002-07-01 09:23:02 51°14.086 2°41.021 -999 -999 -999  
2002-07-01 09:23:07 51°14.087 2°41.019 -999 -999 -999  
2002-07-01 09:23:11 51°14.088 2°41.018 -999 -999 -999  
2002-07-01 09:23:15 51°14.089 2°41.017 -999 -999 -999  
2002-07-01 09:23:22 51°14.091 2°41.016 -999 -999 -999  
2002-07-01 09:23:26 51°14.092 2°41.015 -999 -999 -999  
2002-07-01 09:23:31 51°14.093 2°41.013 -999 -999 -999  
2002-07-01 09:23:37 51°14.095 2°41.012 -999 -999 -999  
2002-07-01 09:23:42 51°14.096 2°41.011 -999 -999 -999  
2002-07-01 09:23:46 51°14.097 2°41.01 -999 -999 -999  
2002-07-01 09:23:51 51°14.098 2°41.009 -999 -999 -999  
2002-07-01 09:23:56 51°14.1 2°41.009 -999 -999 -999  
2002-07-01 09:24:02 51°14.101 2°41.008 -999 -999 -999  
2002-07-01 09:24:07 51°14.102 2°41.008 -999 -999 -999  
2002-07-01 09:24:11 51°14.103 2°41.008 -999 -999 -999  
2002-07-01 09:24:17 51°14.105 2°41.008 -999 -999 -999  
2002-07-01 09:24:22 51°14.106 2°41.008 -999 -999 -999  
2002-07-01 09:24:26 51°14.106 2°41.008 -999 -999 -999  
2002-07-01 09:24:31 51°14.107 2°41.007 -999 -999 -999  
2002-07-01 09:24:36 51°14.109 2°41.007 -999 -999 -999  
2002-07-01 09:24:41 51°14.11 2°41.007 -999 -999 -999  
2002-07-01 09:24:47 51°14.111 2°41.006 -999 -999 -999  
2002-07-01 09:24:51 51°14.112 2°41.005 -999 -999 -999  
2002-07-01 09:24:56 51°14.114 2°41.005 -999 -999 -999  
2002-07-01 09:25:02 51°14.115 2°41.004 -999 -999 -999  
2002-07-01 09:25:06 51°14.116 2°41.003 -999 -999 -999  
2002-07-01 09:25:11 51°14.117 2°41.003 -999 -999 -999  
2002-07-01 09:25:17 51°14.118 2°41.002 -999 -999 -999  
2002-07-01 09:25:21 51°14.119 2°41.002 -999 -999 -999  
2002-07-01 09:25:26 51°14.12 2°41.001 -999 -999 -999  
2002-07-01 09:25:31 51°14.121 2°41.001 -999 -999 -999  
2002-07-01 09:25:37 51°14.122 2°41 -999 -999 -999  
2002-07-01 09:25:41 51°14.123 2°41 -999 -999 -999  
2002-07-01 09:25:47 51°14.125 2°40.999 -999 -999 -999  
2002-07-01 09:25:51 51°14.126 2°40.999 -999 -999 -999  
2002-07-01 09:25:57 51°14.127 2°40.998 -999 -999 -999  
2002-07-01 09:26:01 51°14.128 2°40.998 -999 -999 -999  
2002-07-01 09:26:06 51°14.129 2°40.998 -999 -999 -999  
2002-07-01 09:26:11 51°14.13 2°40.997 -999 -999 -999  
2002-07-01 09:26:16 51°14.131 2°40.997 -999 -999 -999  
2002-07-01 09:26:22 51°14.132 2°40.997 -999 -999 -999  
2002-07-01 09:26:27 51°14.133 2°40.998 -999 -999 -999  
2002-07-01 09:26:31 51°14.133 2°40.999 -999 -999 -999  
2002-07-01 09:26:37 51°14.134 2°41 -999 -999 -999  
2002-07-01 09:26:41 51°14.134 2°41.001 -999 -999 -999  
2002-07-01 09:26:46 51°14.134 2°41.002 -999 -999 -999  
2002-07-01 09:26:51 51°14.134 2°41.004 -999 -999 -999  
2002-07-01 09:26:57 51°14.135 2°41.006 -999 -999 -999  
2002-07-01 09:27:02 51°14.135 2°41.007 -999 -999 -999  
2002-07-01 09:27:06 51°14.134 2°41.007 -999 -999 -999  
2002-07-01 09:27:11 51°14.135 2°41.009 -999 -999 -999  
2002-07-01 09:27:16 51°14.135 2°41.01 -999 -999 -999  
2002-07-01 09:27:22 51°14.135 2°41.012 -999 -999 -999  
2002-07-01 09:27:27 51°14.134 2°41.013 -999 -999 -999  
2002-07-01 09:27:31 51°14.134 2°41.014 -999 -999 -999  
2002-07-01 09:27:37 51°14.134 2°41.015 -999 -999 -999